This is the latest recevied weather packets stored in our database for station/object KG5MMT-15. If no packets are shown the sender has not sent any weather packets the latest 10 day(s).
| Time | Temp. | Humidity | Pressure | Rain* | Wind** | Luminosity | Snow |
|---|---|---|---|---|---|---|---|
| 1787893381 | 15.56° C | 77% | 0 hPa | 0 mm | - | - | - |
| 1787893081 | 15.56° C | 77% | 0 hPa | 0 mm | - | - | - |
| 1787892781 | 15.56° C | 76% | 0 hPa | 0 mm | - | - | - |
| 1787892481 | 16.11° C | 77% | 0 hPa | 0 mm | - | - | - |
| 1787892181 | 16.11° C | 74% | 0 hPa | 0 mm | - | - | - |
| 1787891881 | 16.11° C | 75% | 0 hPa | 0 mm | - | - | - |
| 1787891581 | 16.11° C | 75% | 0 hPa | 0 mm | - | - | - |
| 1787891281 | 16.67° C | 75% | 0 hPa | 0 mm | - | - | - |
| 1787890981 | 16.67° C | 73% | 0 hPa | 0 mm | - | - | - |
| 1787890681 | 16.11° C | 74% | 0 hPa | 0 mm | - | - | - |
| 1787890381 | 16.11° C | 74% | 0 hPa | 0 mm | - | - | - |
| 1787890081 | 16.11° C | 75% | 0 hPa | 0 mm | - | - | - |
| 1787889781 | 16.11° C | 76% | 0 hPa | 0 mm | - | - | - |
| 1787889481 | 16.67° C | 76% | 0 hPa | 0 mm | - | - | - |
| 1787889181 | 16.67° C | 75% | 0 hPa | 0 mm | - | - | - |
| 1787888881 | 17.22° C | 72% | 0 hPa | 0 mm | - | - | - |
| 1787888581 | 16.67° C | 71% | 0 hPa | 0 mm | - | - | - |
| 1787888281 | 16.67° C | 76% | 0 hPa | 0 mm | - | - | - |
| 1787887981 | 16.67° C | 74% | 0 hPa | 0 mm | - | - | - |
| 1787887681 | 17.78° C | 74% | 0 hPa | 0 mm | - | - | - |
| 1787887381 | 17.78° C | 69% | 0 hPa | 0 mm | - | - | - |
| 1787887081 | 17.78° C | 69% | 0 hPa | 0 mm | - | - | - |
| 1787886781 | 17.78° C | 68% | 0 hPa | 0 mm | - | - | - |
| 1787886481 | 17.22° C | 68% | 0 hPa | 0 mm | - | - | - |
| 1787886181 | 17.22° C | 73% | 0 hPa | 0 mm | - | - | - |
* Rain latest hour (hover to see other rain measurements)
** Current wind speed in m/s (hover to see current wind gust speed)